Regional Weather Roundup
Issued by NWS Northern Indiana

Home | Current Version | Previous Version | Text Only | Print | Product List | Glossary Off
Versions: 1 2 3 4 5 6 7 8 9 10 11 12 13 14 15 16 17 18 19 20 21 22 23 24 25 26 27 28 29 30 31 32 33 34 35 36 37 38 39 40 41 42 43 44 45 46 47 48 49 50

000
ASUS43 KIWX 280800
RWRIWX

KIWX WEATHER ROUNDUP
NATIONAL WEATHER SERVICE NORTHERN INDIANA
400 AM EDT FRI AUG 28 2015

NOTE: "FAIR" INDICATES FEW OR NO CLOUDS BELOW 12,000 FEET WITH NO
SIGNIFICANT WEATHER AND/OR OBSTRUCTIONS TO VISIBILITY.

* THESE STATIONS ARE NOT UNDER NWS QUALITY CONTROL. THEY ALSO MAY NOT
  REPORT WEATHER SUCH AS PRECIPITATION OR FOG.

INZ001>027-280900-
NORTHERN INDIANA

CITY           SKY/WX    TMP DP  RH WIND       PRES   REMARKS
KNOX*            N/A     50  50 100 CALM      30.14S
SOUTH BEND     CLEAR     55  53  93 E5        30.16S
GOSHEN         CLEAR     57  54  89 SE7       30.15F
MONTICELLO*    CLEAR     60  58  91 SE3       30.13S
ANGOLA*        CLEAR     55  54  94 SE3       30.17S
FORT WAYNE     PTCLDY    56  54  93 E3        30.17S

$$
INZ028>050-280900-
CENTRAL INDIANA

CITY           SKY/WX    TMP DP  RH WIND       PRES   REMARKS
LAFAYETTE      PTCLDY    59  56  89 E5        30.13R
KOKOMO*        CLEAR     55  52  88 SE3       30.15F
MUNCIE*        PTCLDY    54  54 100 CALM      30.16S
INDIANAPOLIS   CLEAR     63  56  78 E3        30.12S

$$
MIZ043>046-050>051-056>058-064>065-071>073-077>080-280900-
SOUTHWEST LOWER MICHIGAN

CITY           SKY/WX    TMP DP  RH WIND       PRES   REMARKS
BATTLE CREEK   CLEAR     57  53  86 S7        30.17S
BENTON HARBOR  MOCLDY    58  54  86 SE7       30.15R
COLDWATER*     CLEAR     53  53  99 CALM      30.17S
HILLSDALE*     PTCLDY    55  55 100 SE3       30.17F
HOLLAND        CLEAR     55  52  89 SE3       30.16S
GRAND RAPIDS   CLEAR     52  51  97 CALM      30.17R
KALAMAZOO      MOCLDY    58  53  84 S3        30.17R
STURGIS*       CLEAR     55  54  94 SE3       30.16S
THREE RIVERS*    N/A     52  51  97 CALM      30.17R FOG

$$
OHZ001>008-015>018-024>025-280900-
NORTHWEST OHIO

CITY           SKY/WX    TMP DP  RH WIND       PRES   REMARKS
DEFIANCE       CLEAR     54  51  90 CALM      30.18R FOG
FINDLAY        CLEAR     57  54  89 CALM      30.17R
TOLEDO EXPRESS CLEAR     52  52 100 CALM      30.17R
TOLEDO METCALF CLEAR     56  52  86 CALM      30.18R
LIMA           CLEAR     54  53  97 E3        30.17R FOG

$$
AND FOR LAKE MICHIGAN COASTAL AND OPEN LAKE BUOY OBSERVATIONS

STATION/POSITION TEMP    WIND        PRES    VSBY  WAVE
                 AIR SEA DIR/SP/G                  HT/PER
                 (F)     (DEG/KT/KT) (MB)    (MI)  (FT/S)
CALUMET HARBOR    65     110/  6/  8   N/A
MICHIGAN CITY     60     120/  8/  8   N/A
BURNS HARBOR      64     160/  7/ 11 1021.0S
SAINT JOSEPH      60     170/  2/  5 1021.3S
SOUTH LAKE BUOY   67 68  170/ 10/ 14 1020.2S         1
4 MI NW BRIDGMAN  64 70  180/ 12/ 14   N/A           1
MICHIGAN CITY     64 71  150/  8/ 10   N/A           1

$$
&&



USA.gov is the U.S. government's official web portal to all federal, state and local government web resources and services.